sat.trackr.live / text

‹ back to catalog

STARLINK-5107

NORAD 54826 · 2022-177G

PAYLOAD ACTIVE UNKNOWN

§ Identity

Operator
Country
US
Launch date
2022-12-28
Launch site
AFETR
Launch vehicle
Mass (kg)
RCS (m²)

Purposes: comms

External: N2YO · Heavens-Above · Gunter

§ Orbital elements

Epoch: 2026-09-20T22:34:07.019328Z

Period
94.26 min
Inclination
43.0011°
Eccentricity
0.0000759
Mean motion
15.27609477 rev/d
Perigee alt
482.4 km
Apogee alt
483.5 km
Semi-major
6,861.1 km
B*
-7.9588e-5
RAAN
113.4449°
Arg perigee
255.1866°
Mean anomaly
104.8902°
Rev number
20,678

§ Raw data

STARLINK-51071 54826U 22177G   26263.94035902 -.00002453  00000+0 -79588-4 0  99912 54826  43.0011 113.4449 0000759 255.1866 104.8902 15.27609477206781

JSON: /api/v1/satellites/54826 · /tle

For live sub-satellite position, see the globe view (requires WebGL).

§ Visibility from observer

Set your observer location to see the next 7 days of passes ≥ 10°. The values pass through the URL so the page stays shareable.

No JS? Fill the form by hand. The geolocation button needs JavaScript.